Retour au catalogue

STARLINK-2145

ActifCommunicationsVLEO
NORAD 48555·PAYLOAD·🇺🇸 United States

Lancé May 15, 2021 depuis Cape Canaveral Space Force Station

Loading…

Prochains Passages (prochaines 24 heures)

TLE

FraisSource: CelesTrak SupGP

Époque: Sep 15, 2026, 02:16 UTC

1 48555C 21041C   26258.09493056  .00050954  00000+0  16397-2 0  2582
2 48555  53.1604 347.4981 0001138  88.1284 162.7719 15.31653767    16

Suivez STARLINK-2145 en temps réel avec AllMySat

Download on the App Store